TIME,DELAY(SENSOR),PRES,T(CTD),SAL,OXYGEN,RAWTEMP,T(OPTODE),TCPHASE,FLUOR,BETA(BETA700),BETA(BETA412),BETA(BETA440),CDOM,C(CSC),ED(ED412.40),ED(ED444.00),ED(ED489.70),ED(ED554.30),LU(LU411.80),LU(LU443.40),LU(LU489.60),LU(LU554.10),COMP,TILTX,TILTX(TILTY),CHECK
1381095044,5808,497.2799987792969000,6.9286999702453610,34.1207008361816400,86.9664993286132800,589.2429199218750000,6.9312129020690920,47.9464683532714840,51,104,86,79,76,15251,2147746368,2147425645,2148006208,2147873627,2147627456,2147075501,2148246052,2147201645,1958,4,13,2815
1381095159,5807,485.1400146484375000,7.2369999885559080,34.1050987243652340,97.8045730590820300,580.3416748046875000,7.2174911499023440,46.6207695007324200,51,103,86,79,76,15250,2147747072,2147424731,2148008832,2147873280,2147627364,2147076525,2148241042,2147199936,279,4,13,51268
1381095262,5810,473.8399963378906000,7.3116998672485350,34.1058006286621100,104.6464004516601600,577.8703002929688000,7.2968478202819820,45.8616600036621100,51,103,86,77,77,15249,2147745088,2147426450,2148008164,2147871780,2147625974,2147079250,2148241536,2147200557,3084,4,13,18066
1381095391,5806,460.6000061035156000,7.5201001167297360,34.1002998352050800,111.0627975463867200,571.5833129882812000,7.4984779357910160,45.1116600036621100,51,103,87,80,74,15251,2147744813,2147426221,2148002934,2147870390,2147624009,2147077513,2148245056,2147201901,3455,4,12,49889
1381095521,5809,449.8800048828125000,7.6374998092651370,34.0928993225097660,119.0754013061523400,567.5225830078125000,7.6285209655761720,44.2627906799316400,51,104,85,79,74,15252,2147746121,2147425920,2148006582,2147870912,2147626788,2147081563,2148238811,2147203401,2265,3,13,65257
1381095674,5810,438.7699890136719000,7.8572001457214355,34.0912017822265600,129.7872924804687500,560.4005126953125000,7.8562641143798830,43.1503295898437500,50,104,84,79,74,15248,2147741184,2147428242,2148008036,2147873417,2147624694,2147088841,2148242825,2147201682,1287,4,13,14093
1381095837,5810,428.4200134277344000,8.1814002990722660,34.0946006774902340,135.2982940673828000,550.7236938476562000,8.1650085449218750,42.4931106567382800,50,102,87,78,73,15249,2147737142,2147425709,2148007524,2147870573,2147621147,2147087625,2148242998,2147202038,646,4,13,57147
1381096021,5808,416.4200134277344000,8.5038003921508790,34.0969009399414060,144.3963012695312500,540.1879272460938000,8.5002784729003900,41.5314102172851560,50,104,86,80,72,15246,2147738578,2147426441,2148007314,2147872987,2147621787,2147086043,2148240713,2147205275,2998,4,13,8831
1381096160,5806,405.3599853515625000,8.8030004501342770,34.1030006408691400,151.8224945068359400,529.6212158203125000,8.8356437683105470,40.7410697937011700,50,103,88,79,73,15245,2147738953,2147425371,2148007094,2147872612,2147620717,2147088786,2148232045,2147204224,1747,3,13,18411
1381096313,5808,391.6300048828125000,9.1864995956420900,34.1138992309570300,158.6663055419922000,518.9146728515625000,9.1745605468750000,40.0142288208007800,50,104,89,80,72,15246,2147734875,2147425618,2148005275,2147872091,2147614893,2147091117,2148233645,2147203355,928,4,13,3047
1381096416,5809,380.8099975585937500,9.6176004409790040,34.1188011169433600,166.6593933105468800,505.4255981445312500,9.6003589630126950,39.1764106750488300,50,104,85,80,70,15245,2147736128,2147425243,2148004114,2147874249,2147616722,2147087981,2148224676,2147204480,2806,3,13,47728
1381096519,5808,369.6900024414062500,9.8192996978759770,34.1245994567871100,174.5283050537109400,498.7131958007812500,9.8117542266845700,38.4910583496093750,50,106,88,79,71,15244,2147733787,2147429211,2148006893,2147869622,2147613028,2147093229,2148227867,2147201618,2670,3,13,43223
1381096648,5808,356.6900024414062500,10.1407003402709960,34.1302986145019500,177.0796966552734400,488.4945983886719000,10.1329803466796880,38.1375389099121100,50,105,85,80,70,15246,2147731684,2147426358,2148006473,2147873307,2147613312,2147091748,2148225216,2147203062,1983,3,13,28500
1381096790,5809,345.3099975585937500,10.4794998168945310,34.1381988525390600,182.1383972167968800,477.5028076171875000,10.4777297973632810,37.6028594970703100,49,105,83,80,70,15245,2147732004,2147429138,2148007286,2147873782,2147610477,2147095360,2148224832,2147202779,1497,3,13,3037
1381096943,5808,335.0899963378906000,10.8670997619628900,34.1502990722656250,191.7158966064453000,465.1610107421875000,10.8639097213745120,36.7633705139160160,49,103,90,79,70,15249,2147730496,2147427172,2148008832,2147873490,2147611574,2147097005,2148222272,2147204022,407,3,13,2799
1381097142,5809,324.4400024414062500,11.1592998504638670,34.1579017639160160,195.7801971435547000,455.8900146484375000,11.1533899307250980,36.3515815734863300,49,106,84,80,69,15247,2147726281,2147429174,2148010752,2147871771,2147606281,2147102966,2148221540,2147205494,2314,3,13,6035
1381097313,5805,312.2399902343750000,11.6500997543334960,34.1726989746093750,197.0659027099609400,439.1910095214844000,11.6735601425170900,35.9985809326171900,48,102,85,80,69,15241,2147727917,2147428790,2148008850,2147873554,2147604214,2147110061,2148212864,2147204836,1075,3,13,5155
1381097440,5808,300.8299865722656000,12.0333995819091800,34.1873016357421900,202.5625000000000000,426.9259033203125000,12.0546503067016600,35.4642715454101560,49,103,82,79,68,15241,2147725549,2147427977,2148011419,2147872429,2147600731,2147116480,2148217700,2147201938,288,3,13,32858
1381097557,5809,290.8699951171875000,12.4463996887207030,34.2070007324218750,200.2183990478515600,414.9108886718750000,12.4272298812866210,35.4152984619140600,48,105,86,80,68,15245,2147725613,2147429860,2148015936,2147871515,2147599478,2147121517,2148220964,2147203492,2282,3,13,36804
1381097708,5809,280.0000000000000000,13.2638998031616210,34.2695999145507800,204.1824035644531200,387.4274902343750000,13.2769498825073240,34.7462806701660160,47,104,87,79,67,15245,2147726034,2147439195,2148037001,2147871488,2147598921,2147124086,2148229577,2147208356,493,3,14,63783
1381097885,5808,268.9400024414062500,14.1753997802734380,34.3655014038085940,218.7375030517578000,356.3793029785156000,14.2332296371459960,33.4452705383300800,49,103,82,78,66,15241,2147722578,2147449627,2148068918,2147874048,2147594102,2147135899,2148233042,2147212416,2611,3,14,57375
1381098023,5807,257.2300109863281000,15.2074003219604500,34.4546012878418000,216.3916015625000000,325.2684936523437500,15.1882801055908200,33.1124000549316400,49,104,85,79,65,15238,2147719890,2147460589,2148086098,2147874377,2147588068,2147148973,2148240859,2147211666,2108,4,14,12252
1381098146,5807,245.8600006103515600,16.1821994781494140,34.5651016235351560,211.7474060058593800,290.0715026855469000,16.2659301757812500,32.8569984436035160,49,105,85,79,65,15236,2147719296,2147477449,2148136841,2147873408,2147585115,2147166802,2148256777,2147216649,1131,2,15,20240
1381098254,5806,234.2200012207031200,16.8400001525878900,34.6571006774902340,215.1174011230468800,271.7744140625000000,16.8253192901611330,32.4098701477050800,49,104,87,78,64,15235,2147716809,2147478189,2148119469,2147872722,2147580717,2147173101,2148241179,2147215771,906,3,14,55939
1381098345,5806,224.0899963378906200,17.5184993743896500,34.7471008300781250,215.5487976074218800,248.4308929443359400,17.5384693145751950,32.0573081970214840,49,105,85,80,64,15228,2147720914,2147494290,2148151716,2147874368,2147579337,2147189220,2148253504,2147218057,1377,3,14,17857
1381098456,5806,213.5000000000000000,18.2500000000000000,34.8475990295410160,216.8802947998047000,224.2494964599609400,18.2769508361816400,31.6499900817871100,50,106,85,79,63,15225,2147728722,2147547556,2148258861,2147873426,2147577645,2147228379,2148303990,2147221851,1640,2,14,15072
1381098628,5808,203.5800018310547000,19.2208003997802730,34.9869003295898440,217.9347991943359400,193.8238067626953000,19.2062702178955080,31.1788005828857420,55,106,84,81,63,15224,2147730624,2147565778,2148272155,2147869074,2147579721,2147244690,2148306688,2147221824,798,2,14,13024
1381098760,5807,196.8800048828125000,19.6858997344970700,35.0509986877441400,217.5959014892578000,179.1775970458984400,19.6538906097412100,30.9984798431396500,62,107,85,78,62,15215,2147755766,2147673856,2148489316,2147871945,2147585398,2147321673,2148403748,2147229705,3186,2,15,26258
1381098875,5811,192.6399993896484400,19.8047008514404300,35.0657005310058600,220.1002044677734400,174.7033996582031200,19.7906799316406250,30.8082599639892580,56,103,86,80,61,15221,2147762294,2147687533,2148497051,2147873728,2147586313,2147327104,2148412315,2147228141,55,2,15,38997
1381098978,5808,188.6499938964843800,19.8988990783691400,35.0834999084472660,221.4432983398437500,171.1790008544922000,19.8984508514404300,30.6922397613525400,57,105,86,78,61,15220,2147768228,2147706121,2148515465,2147876178,2147590784,2147343862,2148422464,2147230912,3145,2,15,53489
1381099070,5812,184.2299957275390600,20.3003997802734380,35.1309013366699200,221.9880065917968800,158.6056060791015600,20.2830905914306640,30.4969501495361330,61,104,84,81,62,15217,2147782400,2147735213,2148567378,2147873435,2147594413,2147359780,2148449837,2147230784,3094,2,15,34497
1381099137,5810,180.6100006103515600,20.4437007904052730,35.1511001586914060,222.6611938476562500,153.6894073486328000,20.4335594177246100,30.3977394104003900,62,109,87,81,62,15213,2147788361,2147747410,2148582089,2147874934,2147596534,2147376310,2148456384,2147234688,3065,1,15,32098
1381099216,5809,176.6600036621093800,20.6537990570068360,35.1743011474609400,221.8354034423828000,146.6838989257812500,20.6480598449707030,30.3473300933837900,68,110,84,80,61,15203,2147807250,2147796214,2148661129,2147874605,2147603355,2147402642,2148492214,2147239734,2822,2,15,8120
1381099307,5806,172.7700042724609400,20.8148994445800780,35.1943016052246100,222.8639068603515600,141.6067962646484400,20.8035793304443360,30.2283592224121100,73,112,88,80,60,15203,2147896054,2148080384,2149192137,2147878070,2147643163,2147578541,2148747693,2147254308,2317,1,15,10435
1381099424,5806,169.0800018310547000,20.9678993225097660,35.2097015380859400,224.2317047119140600,137.1929931640625000,20.9388294219970700,30.1019001007080080,75,109,84,80,60,15196,2147924864,2148127414,2149251940,2147877686,2147655634,2147605522,2148768548,2147261878,2171,2,15,26121
1381099599,5809,165.3300018310547000,21.3490009307861330,35.2462005615234400,225.1067047119140600,124.4907989501953100,21.3283195495605470,29.8924007415771500,84,115,87,81,61,15185,2147943945,2148125888,2149211785,2147877531,2147661540,2147589120,2148739693,2147257426,2332,2,15,56461
1381099744,5807,160.5599975585937500,21.5093002319335940,35.2575988769531250,227.6083984375000000,118.6167984008789000,21.5085792541503900,29.6932907104492200,86,114,89,81,60,15171,2148058898,2148404626,2149691666,2147878025,2147710445,2147749056,2148942811,2147273920,2087,2,15,56156
1381099823,5810,156.7100067138672000,21.6664009094238280,35.2692985534668000,228.3852996826172000,113.7288970947265600,21.6586494445800780,29.5919990539550780,91,113,91,83,60,15172,2148104429,2148477046,2149776164,2147881380,2147725988,2147773760,2148966683,2147277028,1081,2,15,18847
1381099914,5809,152.3300018310547000,21.7248001098632800,35.2598991394043000,228.5276031494140600,111.5957031250000000,21.7241706848144530,29.5577507019042970,90,115,83,81,60,15171,2148209609,2148656530,2150042925,2147879817,2147763986,2147866093,2149070939,2147284918,923,1,15,45170
1381099995,5807,148.3399963378906200,21.7341995239257800,35.2430000305175800,227.3150939941406200,111.1278991699218800,21.7385406494140620,29.6105995178222660,92,121,86,82,61,15171,2148250532,2148697005,2150033316,2147882852,2147781677,2147868077,2149053120,2147281718,979,2,15,50131
1381100074,5810,144.5099945068359400,21.8006992340087900,35.2277984619140600,223.1324005126953000,109.0891036987304700,21.8011703491210940,29.7904396057128900,94,121,86,82,61,15163,2148393974,2148935250,2150362706,2147884544,2147834541,2147988123,2149193910,2147294500,825,1,15,1338
1381100165,5808,140.4499969482422000,21.9297008514404300,35.2196998596191400,219.9445037841797000,105.3748016357421900,21.9153099060058600,29.9026603698730470,95,124,86,82,61,15153,2148557028,2149200064,2150734692,2147889536,2147899172,2148121536,2149354395,2147308288,870,2,15,18701
1381100256,5808,137.0299987792968800,21.9617996215820300,35.2103996276855500,217.9631042480468800,104.3924026489257800,21.9455108642578120,29.9910202026367200,94,124,87,82,63,15157,2148845851,2149722587,2151529700,2147896877,2148012434,2148377426,2149693787,2147335396,1121,2,16,3765
1381100385,5810,133.1999969482422000,22.0069999694824220,35.1950988769531250,215.9949951171875000,102.5413970947265600,22.0024108886718750,30.0682697296142580,100,121,88,81,60,15162,2149090980,2150094838,2152044379,2147905664,2148106377,2148552850,2149906605,2147355072,2372,1,15,23653
1381100649,5806,128.7400054931640600,22.1984996795654300,35.1740989685058600,214.2321929931640600,96.3398971557617200,22.1931400299072270,30.0789394378662100,97,121,88,81,61,15156,2150269339,2152016576,2154823945,2147938340,2148570843,2149521974,2151094189,2147451894,598,2,15,35410
1381100752,5804,124.8499984741211000,22.3341999053955080,35.1911010742187500,214.6604003906250000,92.7506866455078100,22.3035907745361330,30.0099601745605470,100,125,88,83,61,15153,2151117842,2153173092,2156325988,2147960868,2148904950,2150098806,2151758573,2147511634,331,2,15,30464
1381100855,5810,120.5899963378906200,22.6210002899169920,35.2131996154785160,215.4214935302734400,82.9437637329101600,22.6056003570556640,29.8433208465576170,125,124,86,83,61,15129,2152395968,2154985801,2158736886,2147999945,2149395282,2150919826,2152688310,2147595062,344,1,16,55218
1381100952,5807,116.8700027465820300,22.7919006347656250,35.2238998413085940,216.7023925781250000,77.0108413696289000,22.7884807586669920,29.7010593414306640,132,128,88,84,61,15105,2153554203,2156489682,2160505243,2148034212,2149811977,2151506596,2153315712,2147656585,3039,2,16,56114
1381101019,5806,113.6699981689453100,22.8721008300781250,35.2296981811523440,217.8737945556640600,74.5453567504882800,22.8645191192626950,29.6096000671386720,135,133,88,85,61,15094,2152915346,2155102372,2158091364,2148008274,2149542784,2150719744,2152228022,2147576027,2658,1,16,53082
1381101110,5809,109.5299987792968800,22.9109992980957030,35.2326011657714840,218.8553924560547000,73.1744003295898400,22.9068202972412100,29.5421791076660160,147,132,89,81,62,15086,2155587328,2158544822,2162032822,2148080027,2150556297,2152186541,2153799670,2147725174,2626,1,16,53904
1381101201,5807,105.6100006103515600,23.0664997100830080,35.2442016601562500,219.6105041503906200,68.3834915161132800,23.0546703338623050,29.4428501129150400,158,134,89,84,59,15070,2156528000,2159275867,2162191378,2148096557,2150819593,2152223305,2153604553,2147723977,2879,1,16,29465
1381101294,5807,101.9499969482421900,23.3490009307861330,35.2585983276367200,221.0426940917968800,59.4861793518066400,23.3295192718505860,29.2574901580810550,177,136,92,84,61,15041,2160648448,2164487588,2167799122,2148209828,2152274148,2154172553,2155595062,2147923538,3408,1,15,54115
1381101385,5806,98.7300033569336000,23.4561996459960940,35.2689018249511700,223.1889953613281200,55.9190101623535160,23.4398002624511720,29.1058902740478500,178,134,89,83,60,15034,2163827282,2168274788,2171338477,2148299035,2153373878,2155475977,2156827072,2148060324,2894,1,16,29328
1381101440,5808,96.6900024414062500,23.5347003936767580,35.2653999328613300,223.7178039550781200,52.7682418823242200,23.5372600555419920,29.0401592254638670,183,134,91,84,58,15037,2166447369,2171580379,2174549056,2148384475,2154323721,2156646738,2157970176,2148189897,2288,1,16,15530
1381101495,5811,94.6299972534179700,23.8073997497558600,35.2930984497070300,226.0635070800781200,45.3676795959472660,23.7663593292236330,28.8324508666992200,169,130,90,84,59,15047,2169743744,2175719232,2178777234,2148502153,2155616292,2158316900,2159629732,2148359369,1714,1,16,55695
1381101550,5816,93.0999984741211000,23.9281005859375000,35.2919998168945300,228.2091979980468800,42.0096015930175800,23.8703994750976560,28.6873607635498050,135,127,92,83,60,15074,2169270628,2174708717,2177301659,2148498176,2155503140,2158000630,2159157824,2148326080,1805,1,16,39936
1381101635,5818,90.9100036621093800,23.9992008209228500,35.2897987365722660,229.7075958251953000,37.9796981811523440,23.9953193664550780,28.5655002593994140,94,122,91,84,57,15095,2170844864,2176172553,2178319872,2148568758,2156310518,2158908827,2159809252,2148399908,1830,1,16,60321
1381101690,5808,89.1500015258789000,24.3113002777099600,35.3415985107421900,232.4264984130859400,28.6832008361816400,24.2838191986084000,28.3219108581542970,93,122,88,85,58,15093,2180310281,2187836288,2190826925,2148934381,2160155218,2164079990,2164785152,2148897444,877,1,16,13665
1381101781,5807,87.4700012207031200,24.3915004730224600,35.3468017578125000,237.3726959228515600,25.7096500396728500,24.3761901855468750,28.0583000183105470,82,122,91,86,57,15103,2176655817,2182097097,2183505545,2148741522,2159474733,2162774994,2162875053,2148689353,481,1,16,35406
1381101937,5810,85.1500015258789000,24.6124000549316400,35.3577003479003900,242.4440002441406200,18.5100097656250000,24.6000308990478500,27.7425899505615230,79,125,93,84,55,15090,2191463716,2198540717,2199339629,2149315401,2167155419,2172263277,2170816356,2149466112,214,1,16,58014
1381102004,5807,82.9800033569336000,24.8694992065429700,35.3624000549316400,243.5260925292968800,10.5319499969482420,24.8484096527099600,27.5970993041992200,73,126,93,86,57,15092,2193774994,2199913307,2199513362,2149409929,2169355520,2174447250,2171996781,2149576978,2938,2,17,44141
1381102071,5808,80.8700027465820300,24.9412994384765620,35.3718986511230500,245.4378967285156200,7.8835492134094240,24.9309291839599600,27.4814891815185550,72,127,91,86,56,15089,2195026669,2200489481,2199377828,2149527369,2170838637,2175645366,2172344722,2149628608,2611,1,16,29571
1381102126,5810,79.0199966430664000,24.9995994567871100,35.3760986328125000,246.1925048828125000,6.0113039016723630,24.9892997741699220,27.4259395599365230,70,125,91,84,55,15092,2196680630,2201272164,2199551186,2149610624,2172541750,2177275648,2173278829,2149710281,3159,1,16,47968
1381102181,5803,77.0400009155273400,25.1776008605957030,35.3858985900878900,246.3224945068359400,0.4114865958690643,25.1639995574951170,27.3519802093505860,71,127,91,85,58,15085,2201837970,2206269714,2203938203,2149900114,2175778249,2180760685,2175788388,2149983158,3507,0,17,5290
1381102265,5811,73.8600006103515600,25.3400993347167970,35.3903999328613300,248.0487060546875000,-4.2842211723327640,25.3106307983398440,27.2206993103027340,68,130,90,85,56,15082,2197920749,2200290880,2196988096,2149810669,2175384795,2179150564,2173519606,2149758445,3172,1,16,11406
1381102320,5809,71.4899978637695300,25.5538005828857420,35.3936004638671900,248.1363983154297000,-11.3481397628784180,25.5314598083496100,27.1311302185058600,67,129,94,85,57,15077,2215070747,2218520566,2214261348,2150770642,2186077778,2191180470,2182808466,2150714569,2781,1,16,46491
1381102375,5804,69.5100021362304700,25.6765003204345700,35.3975982666015600,248.6396026611328000,-14.9009504318237300,25.6426391601562500,27.0666599273681640,68,129,93,86,56,15072,2226242569,2230282066,2225104219,2151520841,2194072841,2199768109,2189067392,2151399844,1927,1,16,13764
1381102430,5804,68.0699996948242200,25.9384994506835940,35.4086990356445300,248.0155944824218800,-20.8839302062988280,25.8300590515136720,27.0206794738769530,66,128,94,89,55,15065,2210766692,2212027593,2206697490,2150743158,2186105737,2189557065,2180284059,2150509229,2291,2,16,52861
1381102521,5811,66.7699966430664000,26.1709995269775400,35.4210014343261700,247.3977966308593800,-29.7635402679443360,26.1086406707763670,26.9392108917236330,67,126,95,86,56,15064,2234822793,2237525357,2231272320,2152257746,2201340004,2206803693,2193848960,2151910939,2973,1,16,55385
1381102654,5810,63.7299995422363300,26.4071998596191400,35.4154014587402340,246.3959960937500000,-38.4466590881347660,26.3815593719482420,26.8770294189453120,63,131,95,86,58,15064,2240522212,2241634194,2234380507,2153021942,2207795812,2212250898,2196865389,2152320402,3458,1,17,26119
1381102709,5807,62.1199989318847660,26.5596008300781250,35.4132003784179700,245.6316986083984400,-43.0797195434570300,26.5273990631103500,26.8536796569824220,64,129,94,86,56,15059,2239429184,2239115291,2230879506,2153013814,2209092086,2212582546,2196327744,2152290240,760,1,16,511
1381102788,5808,60.5999984741210940,26.7381992340087900,35.4028015136718750,244.1510009765625000,-49.0833511352539060,26.7166004180908200,26.8443794250488280,63,131,95,86,58,15067,2241519515,2240502866,2231939373,2153457901,2211113426,2213906843,2196829897,2152417545,525,1,16,57932
1381103321,5810,58.3199996948242200,27.4608993530273440,35.2812004089355500,233.5411071777343800,-72.5526428222656200,27.4587497711181640,27.0264091491699220,60,127,93,85,55,15057,2282506358,2281585033,2270206528,2157059264,2248976996,2251776978,2223048640,2155261613,303,1,16,16578
1381103513,5806,56.4500007629394500,27.7131004333496100,35.2151985168457000,230.2474975585937500,-80.1748809814453100,27.7006893157959000,27.0827808380126950,59,130,90,83,56,15068,2289028470,2288649892,2275781302,2158195273,2261229083,2261342217,2227793344,2155887030,2412,0,16,54463
1381103712,5808,54.6699981689453100,27.8596992492675780,35.1631011962890600,223.8983001708984400,-85.2872772216796900,27.8632202148437500,27.3147697448730470,56,119,93,85,56,15083,2295133760,2295010139,2282339419,2159644041,2271048338,2269461147,2232543597,2156473417,2439,0,17,61372
1381103832,5808,51.5000000000000000,27.8584995269775400,35.1590995788574200,222.9591064453125000,-85.1797027587890600,27.8598003387451170,27.3603897094726560,55,118,89,83,54,15095,2299719286,2298619126,2285479881,2161801590,2284653622,2280722185,2239198125,2157616521,2276,0,17,32370
1381103887,5810,48.8100013732910160,27.8575992584228500,35.1591987609863300,222.7510986328125000,-85.1568832397461000,27.8590698242187500,27.3704605102539060,56,120,90,83,55,15095,2307983094,2307457408,2294519058,2164395200,2300716141,2294379136,2247193069,2158842048,2003,0,16,7277
1381103942,5816,46.1500015258789060,27.8577995300292970,35.1576995849609400,222.6607971191406200,-85.2620162963867200,27.8624191284179700,27.3736000061035160,55,118,93,81,55,15091,2332435538,2332921974,2320066075,2170026541,2331753718,2322782281,2265844068,2161364260,1764,1,17,4599
1381103997,5808,43.5800018310546900,27.8596000671386720,35.1573982238769500,222.5839996337890600,-85.1320037841796900,27.8582801818847660,27.3787403106689450,52,119,89,83,56,15096,2212975725,2204298038,2193501229,2152953060,2222158857,2209623277,2184329088,2151235849,1652,1,17,34142
1381104052,5805,41.0900001525878900,27.8600006103515620,35.1567001342773440,222.6271057128906200,-85.2425384521484400,27.8617992401123050,27.3753395080566400,53,118,85,84,53,15095,2346637622,2346610532,2334559396,2177024594,2367500315,2352506523,2282617901,2164110052,1641,1,16,33252
1381104109,5819,38.5499992370605500,27.8591003417968750,35.1567993164062500,222.7021026611328000,-85.2865982055664000,27.8631992340087900,27.3712997436523440,54,117,86,82,60,15092,2350928091,2350507410,2339275849,2181691794,2385702939,2367300086,2291288384,2166006217,1605,0,17,34066
1381104164,5810,36.0900001525878900,27.8607997894287100,35.1558990478515600,222.6976928710937500,-85.3870162963867200,27.8663902282714840,27.3703899383544920,52,118,90,82,57,15085,2376932598,2378445760,2368579419,2191333760,2412533257,2390973650,2306171520,2168848384,1554,1,16,61454
1381104219,5805,33.5999984741210940,27.8612995147705080,35.1558990478515600,222.7667999267578000,-85.5566635131836000,27.8717899322509770,27.3647899627685550,53,119,88,82,59,15082,2384475291,2385445613,2376852891,2199441462,2436605440,2411987574,2319671963,2171982573,1445,1,16,4801